Tracking 18852 objects as of 24-Nov-2017
HD Live streaming from Space Station
objects crossing your sky now

METEOR 2-16

Track METEOR 2-16 now!
10-day predictions
METEOR 2-16 is classified as:


NORAD ID: 18312
Int'l Code: 1987-068A
Perigee: 945.5 km
Apogee: 963.2 km
Inclination: 82.6 °
Period: 104.0 minutes
Semi major axis: 7325 km
RCS: 4.5144 m2 (large)
Launch date: August 18, 1987
Source: Commonwealth of Independent States (former USSR) (CIS)
Launch site: PLESETSK MISSILE AND SPACE COMPLEX (PKMTR)
aabbcc
Your satellite tracking list
Your tracking list is empty




NASA's NSSDC Master Catalog

Two Line Element Set (TLE):
1 18312U 87068A   17328.21594897 -.00000010  00000-0 -22555-4 0  9996
2 18312  82.5569 257.6036 0012078 182.3262 177.7845 13.84720338529580
Source of the keplerian elements: AFSPC